Aswan, Egypt

9:38 PM EET on February 06, 2016 (GMT +0200)
Aswan International

Weather History for HESN - January, 2013

Change the Weather History Date:

Sunday, January 6, 2013

  Actual Average Record
Temperature  
Mean Temperature 59 °F -  
Max Temperature 69 °F 71 °F 84 °F (1997)
Min Temperature 49 °F 50 °F 44 °F (2007)
Degree Days  
Heating Degree Days 6    
Growing Degree Days 9 (Base 50)    
Moisture  
Dew Point 37 °F    
Average Humidity 44    
Maximum Humidity 66    
Minimum Humidity 19    
Precipitation  
Precipitation 0.00 in 0.00 in - ()
Sea Level Pressure  
Sea Level Pressure 30.06 in    
Wind  
Wind Speed 5 mph ()    
Max Wind Speed 12 mph    
Max Gust Speed -    
Visibility 6.0 miles    
Events      
Averages and records for this station are not official NWS values.
T = Trace of Precipitation, MM = Missing Value Source: Averaged Metar Reports

Daily Weather History Graph

Daily Weather History Graph

Search for Another Location

Airport or City:

Trip Planner

Search our weather history database for the weather conditions in past years. The results will help you decide how hot, cold, wet, or windy it might be!

Date:

Astronomy

Jan. 06, 2013 Rise Set
Actual Time 6:33 AM EET 5:16 PM EET
Civil Twilight 6:08 AM EET 5:41 PM EET
Nautical Twilight 5:40 AM EET 6:09 PM EET
Astronomical Twilight 5:12 AM EET 6:36 PM EET
Moon 12:41 AM EET 12:16 PM EET
Length of Visible Light 11h 32m
Length of Day
10h 43m
Last Quarter, 36% of the Moon is Illuminated
Jan 6
Last Quarter
Jan 11
New
Jan 19
First Quarter
Jan 27
Full
Feb 3
Last Quarter

Hourly Weather History & Observations

Time (EET) Temp. Dew Point Humidity Pressure Visibility Wind Dir Wind Speed Gust Speed Precip Events Conditions
12:00 AM 55.4 °F 37.4 °F 51% 30.04 in - NW 5.8 mph - N/A   Clear
1:00 AM 53.6 °F 39.2 °F 58% 30.04 in - NW 5.8 mph - N/A   Clear
2:00 AM 53 °F 40 °F 51% 30.05 in 6 mi NNW 4.6 mph - -  
2:00 AM 53.6 °F 41.0 °F 62% 30.04 in - NNW 4.6 mph - N/A   Clear
3:00 AM 51.8 °F 39.2 °F 62% 30.04 in - NNE 3.5 mph - N/A   Clear
4:00 AM 51.8 °F 39.2 °F 62% 30.04 in - North 3.5 mph - N/A   Clear
5:00 AM 50.0 °F 39.2 °F 66% 30.04 in - NW 3.5 mph - N/A   Clear
6:00 AM 50.0 °F 39.2 °F 66% 30.06 in - WNW 3.5 mph - N/A   Clear
7:00 AM 50.0 °F 39.2 °F 66% 30.06 in - NW 4.6 mph - N/A   Clear
8:00 AM 53 °F 38 °F 44% 30.12 in 6 mi Calm Calm - -   Clear
8:00 AM 53.6 °F 37.4 °F 54% 30.09 in - Calm Calm - N/A   Clear
9:00 AM 57.2 °F 37.4 °F 48% 30.12 in - NNW 5.8 mph - N/A   Clear
10:00 AM 60.8 °F 37.4 °F 42% 30.12 in - North 9.2 mph - N/A   Clear
11:00 AM 64.4 °F 37.4 °F 37% 30.09 in - North 10.4 mph - N/A   Clear
12:00 PM 66.2 °F 37.4 °F 35% 30.06 in - NNW 10.4 mph - N/A   Clear
1:00 PM 68.0 °F 35.6 °F 30% 30.04 in - NNW 8.1 mph - N/A   Clear
2:00 PM 68 °F 36 °F 19% 30.02 in 6 mi NW 9.2 mph - -   Clear
2:00 PM 68.0 °F 35.6 °F 30% 30.04 in - NW 9.2 mph - N/A   Clear
3:00 PM 69.8 °F 35.6 °F 28% 30.04 in - NW 10.4 mph - N/A   Clear
4:00 PM 68.0 °F 35.6 °F 30% 30.04 in - NW 9.2 mph - N/A   Clear
5:00 PM 68.0 °F 33.8 °F 28% 30.04 in - WNW 11.5 mph - N/A   Clear
6:00 PM 64.4 °F 33.8 °F 32% 30.04 in - West 9.2 mph - N/A   Clear
7:00 PM 62.6 °F 33.8 °F 34% 30.06 in - West 9.2 mph - N/A   Clear
8:00 PM 61 °F 35 °F 27% 30.08 in 6 mi West 9.2 mph - -  
8:00 PM 60.8 °F 35.6 °F 39% 30.06 in - West 9.2 mph - N/A   Clear
9:00 PM 57.2 °F 33.8 °F 41% 30.09 in - West 5.8 mph - N/A   Clear
10:00 PM 57.2 °F 33.8 °F 41% 30.09 in - West 9.2 mph - N/A   Clear
11:00 PM 55.4 °F 33.8 °F 44% 30.09 in - WSW 4.6 mph - N/A   Clear